| time (UTC) | temp F | wind direction | speed MPH | gust MPH | rain 1hr in | rain 24hr in | rain mn in | humidity % | barometer mb |
| 20260903005044 | 74 | 97 | 0.0 | 3.0 | 0.00 | 0.61 | 0.59 | 94 | 1017.6 |
| 20260903004542 | 74 | 97 | 0.0 | 3.0 | 0.00 | 0.61 | 0.59 | 93 | 1017.7 |
| 20260903004043 | 73 | 97 | 0.0 | 3.0 | 0.00 | 0.61 | 0.59 | 94 | 1017.7 |
| 20260903003541 | 73 | 97 | 0.0 | 1.0 | 0.00 | 0.61 | 0.59 | 93 | 1017.6 |
| 20260903003040 | 73 | 97 | 0.0 | 1.0 | 0.00 | 0.62 | 0.59 | 93 | 1017.5 |
| 20260903002539 | 73 | 97 | 0.0 | 1.0 | 0.00 | 0.62 | 0.59 | 93 | 1017.5 |
| 20260903002300 | 73 | 97 | 0.0 | 0.0 | 0.00 | 0.70 | 0.59 | 93 | 1017.5 |
| 20260903001537 | 73 | 97 | 0.0 | 1.0 | 0.00 | 0.73 | 0.59 | 93 | 1017.6 |
| 20260903001039 | 73 | 97 | 0.0 | 1.0 | 0.00 | 0.74 | 0.59 | 93 | 1017.5 |
| 20260903000756 | 73 | 97 | 0.0 | 1.0 | 0.00 | 0.75 | 0.59 | 93 | 1017.5 |
| 20260903000257 | 74 | 97 | 0.0 | 1.0 | 0.00 | 0.75 | 0.59 | 93 | 1017.4 |
| 20260902235535 | 74 | 97 | 0.0 | 1.0 | 0.00 | 0.77 | 0.59 | 93 | 1017.5 |
| 20260902235033 | 74 | 97 | 0.0 | 1.0 | 0.00 | 0.77 | 0.59 | 93 | 1017.4 |
| 20260902234530 | 74 | 97 | 0.0 | 1.0 | 0.00 | 0.77 | 0.59 | 93 | 1017.3 |
| 20260902234035 | 74 | 97 | 0.0 | 2.0 | 0.00 | 0.77 | 0.59 | 93 | 1017.3 |
| 20260902233530 | 74 | 97 | 0.0 | 2.0 | 0.00 | 0.77 | 0.59 | 93 | 1017.3 |
| 20260902233026 | 74 | 97 | 0.0 | 1.0 | 0.00 | 0.77 | 0.59 | 92 | 1017.3 |
| 20260902232529 | 74 | 97 | 0.0 | 1.0 | 0.00 | 0.77 | 0.59 | 93 | 1017.5 |
| 20260902232025 | 74 | 97 | 0.0 | 1.0 | 0.00 | 0.77 | 0.59 | 92 | 1017.4 |
| 20260902231524 | 74 | 97 | 0.0 | 2.0 | 0.00 | 0.77 | 0.59 | 92 | 1017.4 |
| 20260902231025 | 74 | 97 | 0.0 | 2.0 | 0.00 | 0.77 | 0.59 | 92 | 1017.6 |
| 20260902230802 | 74 | 97 | 0.0 | 1.0 | 0.00 | 0.77 | 0.59 | 92 | 1017.6 |
| 20260902230244 | 74 | 97 | 0.0 | 4.0 | 0.00 | 0.77 | 0.59 | 92 | 1017.7 |
| 20260902225519 | 74 | 97 | 0.0 | 4.0 | 0.00 | 0.77 | 0.59 | 92 | 1017.6 |
| 20260902225028 | 75 | 97 | 1.0 | 7.0 | 0.00 | 0.77 | 0.59 | 92 | 1017.4 |
| 20260902225018 | 75 | 97 | 0.0 | 1.0 | 0.00 | 0.77 | 0.59 | 92 | 1017.5 |
| 20260902224019 | 75 | 97 | 1.0 | 7.0 | 0.00 | 0.77 | 0.59 | 92 | 1017.5 |
| 20260902223518 | 75 | 137 | 1.0 | 5.0 | 0.00 | 0.77 | 0.59 | 92 | 1017.4 |
| 20260902223244 | 75 | 137 | 1.0 | 5.0 | 0.00 | 0.77 | 0.59 | 92 | 1017.5 |
| 20260902222747 | 75 | 148 | 0.0 | 3.0 | 0.00 | 0.77 | 0.59 | 92 | 1017.5 |
| 20260902222018 | 75 | 148 | 0.0 | 5.0 | 0.00 | 0.77 | 0.59 | 92 | 1017.5 |
| 20260902221518 | 75 | 148 | 0.0 | 5.0 | 0.00 | 0.77 | 0.59 | 92 | 1017.8 |
| 20260902221020 | 75 | 148 | 1.0 | 5.0 | 0.00 | 0.77 | 0.59 | 92 | 1017.9 |
| 20260902220520 | 75 | 148 | 1.0 | 5.0 | 0.00 | 0.77 | 0.59 | 92 | 1017.9 |
| 20260902220016 | 75 | 109 | 1.0 | 6.0 | 0.00 | 0.77 | 0.59 | 92 | 1018.0 |
| 20260902215517 | 75 | 109 | 1.0 | 6.0 | 0.00 | 0.77 | 0.59 | 91 | 1018.0 |
| 20260902215016 | 75 | 112 | 1.0 | 3.0 | 0.00 | 0.77 | 0.59 | 91 | 1017.8 |
| 20260902214522 | 75 | 112 | 2.0 | 6.0 | 0.00 | 0.77 | 0.59 | 92 | 1017.8 |
| 20260902214016 | 75 | 113 | 2.0 | 6.0 | 0.00 | 0.77 | 0.59 | 91 | 1017.8 |
| 20260902213516 | 75 | 165 | 1.0 | 6.0 | 0.00 | 0.77 | 0.59 | 91 | 1017.8 |
| 20260902213016 | 75 | 107 | 1.0 | 6.0 | 0.00 | 0.77 | 0.59 | 92 | 1017.6 |
| 20260902212515 | 75 | 109 | 1.0 | 6.0 | 0.00 | 0.77 | 0.59 | 92 | 1017.7 |
| 20260902212019 | 75 | 178 | 1.0 | 6.0 | 0.00 | 0.77 | 0.59 | 92 | 1017.8 |
| 20260902211514 | 75 | 169 | 1.0 | 6.0 | 0.00 | 0.77 | 0.59 | 92 | 1017.9 |
| 20260902211215 | 75 | 101 | 2.0 | 8.0 | 0.00 | 0.77 | 0.59 | 92 | 1017.7 |
| 20260902211109 | 75 | 101 | 2.0 | 8.0 | 0.00 | 0.77 | 0.59 | 92 | 1017.8 |
| 20260902210016 | 75 | 144 | 1.0 | 4.0 | 0.00 | 0.77 | 0.59 | 92 | 1017.7 |
| 20260902205514 | 75 | 146 | 1.0 | 4.0 | 0.00 | 0.77 | 0.59 | 93 | 1017.7 |
| 20260902205016 | 75 | 146 | 1.0 | 4.0 | 0.00 | 0.77 | 0.59 | 92 | 1017.7 |
| 20260902204516 | 74 | 146 | 1.0 | 4.0 | 0.00 | 0.77 | 0.59 | 92 | 1017.7 |
| 20260902204011 | 74 | 148 | 1.0 | 3.0 | 0.00 | 0.77 | 0.59 | 92 | 1017.8 |
| 20260902203514 | 74 | 147 | 1.0 | 5.0 | 0.00 | 0.77 | 0.59 | 92 | 1017.6 |
| 20260902203009 | 74 | 147 | 1.0 | 5.0 | 0.00 | 0.77 | 0.59 | 92 | 1017.4 |
| 20260902202510 | 75 | 105 | 0.0 | 3.0 | 0.00 | 0.77 | 0.59 | 92 | 1017.6 |
| 20260902202009 | 75 | 104 | 0.0 | 2.0 | 0.00 | 0.77 | 0.59 | 93 | 1017.9 |
| 20260902201736 | 74 | 104 | 0.0 | 2.0 | 0.00 | 0.77 | 0.59 | 93 | 1018.2 |
| 20260902201008 | 74 | 104 | 0.0 | 2.0 | 0.00 | 0.77 | 0.59 | 93 | 1018.2 |
| 20260902200731 | 74 | 104 | 0.0 | 3.0 | 0.00 | 0.77 | 0.59 | 93 | 1018.3 |
| 20260902200008 | 74 | 104 | 1.0 | 4.0 | 0.00 | 0.77 | 0.59 | 93 | 1018.2 |
| 20260902195731 | 74 | 105 | 1.0 | 6.0 | 0.00 | 0.77 | 0.59 | 93 | 1018.0 |
| 20260902195006 | 74 | 105 | 1.0 | 6.0 | 0.00 | 0.77 | 0.59 | 93 | 1018.0 |
| 20260902194508 | 74 | 111 | 2.0 | 6.0 | 0.00 | 0.77 | 0.59 | 93 | 1017.8 |
| 20260902194231 | 74 | 111 | 2.0 | 7.0 | 0.00 | 0.77 | 0.59 | 94 | 1017.9 |
| 20260902193738 | 74 | 123 | 2.0 | 7.0 | 0.01 | 0.77 | 0.59 | 94 | 1017.9 |
| 20260902193006 | 74 | 93 | 1.0 | 6.0 | 0.01 | 0.77 | 0.59 | 94 | 1018.0 |
| 20260902192506 | 73 | 90 | 1.0 | 6.0 | 0.01 | 0.77 | 0.59 | 93 | 1017.8 |
| 20260902192005 | 73 | 80 | 1.0 | 4.0 | 0.01 | 0.77 | 0.59 | 94 | 1017.8 |
| 20260902191505 | 73 | 80 | 1.0 | 3.0 | 0.01 | 0.77 | 0.59 | 94 | 1017.8 |
| 20260902191224 | 73 | 80 | 1.0 | 4.0 | 0.01 | 0.77 | 0.59 | 94 | 1017.7 |
| 20260902190514 | 73 | 80 | 1.0 | 4.0 | 0.02 | 0.77 | 0.59 | 94 | 1017.6 |
| 20260902185957 | 73 | 104 | 1.0 | 4.0 | 0.03 | 0.77 | 0.59 | 94 | 1017.7 |
| 20260902185456 | 73 | 104 | 2.0 | 6.0 | 0.05 | 0.77 | 0.59 | 94 | 1017.7 |
| 20260902185000 | 72 | 107 | 1.0 | 6.0 | 0.07 | 0.77 | 0.59 | 94 | 1017.8 |
| 20260902184459 | 73 | 146 | 1.0 | 3.0 | 0.09 | 0.77 | 0.59 | 94 | 1017.9 |
| 20260902184000 | 73 | 146 | 1.0 | 4.0 | 0.10 | 0.77 | 0.59 | 94 | 1017.9 |
| 20260902183454 | 72 | 146 | 1.0 | 4.0 | 0.10 | 0.76 | 0.58 | 94 | 1018.0 |
| 20260902182954 | 72 | 148 | 1.0 | 3.0 | 0.10 | 0.76 | 0.58 | 94 | 1018.0 |
| 20260902182456 | 72 | 148 | 0.0 | 5.0 | 0.11 | 0.76 | 0.58 | 94 | 1018.3 |
| 20260902182222 | 72 | 148 | 0.0 | 5.0 | 0.12 | 0.76 | 0.58 | 94 | 1018.3 |
| 20260902181456 | 72 | 148 | 1.0 | 5.0 | 0.32 | 0.76 | 0.58 | 93 | 1018.4 |
| 20260902180954 | 72 | 148 | 1.0 | 5.0 | 0.51 | 0.76 | 0.58 | 93 | 1018.2 |
| 20260902180452 | 72 | 150 | 0.0 | 2.0 | 0.53 | 0.75 | 0.57 | 93 | 1018.5 |
| 20260902180218 | 72 | 150 | 1.0 | 5.0 | 0.52 | 0.74 | 0.56 | 93 | 1018.7 |
| 20260902175723 | 72 | 150 | 1.0 | 5.0 | 0.50 | 0.72 | 0.54 | 93 | 1018.6 |
| 20260902175438 | 72 | 150 | 1.0 | 5.0 | 0.48 | 0.70 | 0.52 | 93 | 1018.9 |
| 20260902174448 | 72 | 152 | 1.0 | 6.0 | 0.46 | 0.68 | 0.51 | 93 | 1019.1 |
| 20260902173949 | 72 | 194 | 1.0 | 6.0 | 0.45 | 0.67 | 0.49 | 93 | 1018.9 |
| 20260902173451 | 72 | 92 | 2.0 | 4.0 | 0.44 | 0.66 | 0.48 | 93 | 1019.1 |
| 20260902172950 | 72 | 95 | 2.0 | 7.0 | 0.44 | 0.66 | 0.48 | 93 | 1019.4 |
| 20260902172449 | 72 | 96 | 2.0 | 7.0 | 0.43 | 0.65 | 0.47 | 93 | 1019.7 |
| 20260902172218 | 72 | 157 | 2.0 | 7.0 | 0.42 | 0.64 | 0.46 | 93 | 1020.1 |
| 20260902171454 | 72 | 159 | 2.0 | 7.0 | 0.22 | 0.44 | 0.30 | 92 | 1020.4 |
| 20260902170951 | 72 | 342 | 1.0 | 6.0 | 0.03 | 0.25 | 0.08 | 92 | 1021.6 |
| 20260902170452 | 72 | 322 | 0.0 | 2.0 | 0.00 | 0.22 | 0.04 | 92 | 1021.6 |
| 20260902165951 | 73 | 26 | 0.0 | 3.0 | 0.00 | 0.22 | 0.04 | 92 | 1020.8 |
| 20260902165450 | 73 | 26 | 0.0 | 3.0 | 0.00 | 0.22 | 0.04 | 92 | 1020.6 |
| 20260902164950 | 73 | 103 | 0.0 | 2.0 | 0.00 | 0.22 | 0.04 | 92 | 1020.3 |
| 20260902164503 | 73 | 105 | 0.0 | 2.0 | 0.00 | 0.22 | 0.04 | 92 | 1019.9 |
| 20260902164209 | 73 | 105 | 1.0 | 4.0 | 0.00 | 0.22 | 0.04 | 92 | 1020.0 |
| 20260902163446 | 73 | 105 | 1.0 | 4.0 | 0.00 | 0.22 | 0.04 | 92 | 1020.1 |
| 20260902163207 | 73 | 104 | 1.0 | 4.0 | 0.00 | 0.22 | 0.04 | 91 | 1019.9 |
| 20260902162444 | 73 | 107 | 1.0 | 3.0 | 0.00 | 0.22 | 0.04 | 91 | 1019.8 |
| 20260902162216 | 74 | 103 | 1.0 | 8.0 | 0.00 | 0.22 | 0.04 | 91 | 1019.4 |
| 20260902161944 | 74 | 103 | 1.0 | 3.0 | 0.00 | 0.22 | 0.04 | 91 | 1019.6 |
| 20260902160942 | 74 | 103 | 2.0 | 8.0 | 0.00 | 0.22 | 0.04 | 91 | 1019.5 |
| 20260902160454 | 74 | 92 | 1.0 | 8.0 | 0.00 | 0.22 | 0.04 | 91 | 1019.5 |
| 20260902160204 | 74 | 101 | 2.0 | 9.0 | 0.00 | 0.22 | 0.04 | 91 | 1019.6 |
| 20260902155440 | 74 | 100 | 2.0 | 9.0 | 0.00 | 0.22 | 0.04 | 91 | 1019.5 |
| 20260902154941 | 74 | 132 | 2.0 | 8.0 | 0.00 | 0.22 | 0.04 | 91 | 1019.2 |
| 20260902154441 | 74 | 88 | 2.0 | 9.0 | 0.00 | 0.22 | 0.04 | 91 | 1019.1 |
| 20260902153941 | 74 | 90 | 2.0 | 9.0 | 0.00 | 0.22 | 0.04 | 91 | 1019.0 |
| 20260902153440 | 74 | 107 | 3.0 | 10.0 | 0.00 | 0.22 | 0.04 | 91 | 1019.0 |
| 20260902153203 | 74 | 105 | 3.0 | 10.0 | 0.00 | 0.22 | 0.04 | 91 | 1019.1 |
| 20260902152439 | 74 | 96 | 3.0 | 9.0 | 0.00 | 0.22 | 0.04 | 91 | 1019.0 |
| 20260902151937 | 74 | 101 | 3.0 | 8.0 | 0.00 | 0.22 | 0.04 | 91 | 1019.1 |
| 20260902151436 | 74 | 103 | 2.0 | 6.0 | 0.00 | 0.22 | 0.04 | 91 | 1019.2 |
| 20260902150937 | 74 | 105 | 1.0 | 4.0 | 0.00 | 0.22 | 0.04 | 91 | 1019.3 |
| 20260902150437 | 74 | 96 | 1.0 | 4.0 | 0.00 | 0.22 | 0.04 | 92 | 1019.5 |
| 20260902145940 | 74 | 96 | 1.0 | 4.0 | 0.00 | 0.22 | 0.04 | 92 | 1019.5 |
| 20260902145436 | 74 | 94 | 1.0 | 3.0 | 0.00 | 0.22 | 0.04 | 92 | 1019.6 |
| 20260902144936 | 74 | 94 | 1.0 | 3.0 | 0.00 | 0.22 | 0.04 | 92 | 1019.6 |
| 20260902144432 | 73 | 94 | 1.0 | 3.0 | 0.00 | 0.22 | 0.04 | 92 | 1019.5 |
| 20260902143933 | 73 | 94 | 1.0 | 6.0 | 0.00 | 0.22 | 0.04 | 92 | 1019.4 |
| 20260902143431 | 72 | 94 | 2.0 | 6.0 | 0.00 | 0.22 | 0.04 | 92 | 1019.4 |
| 20260902142931 | 72 | 169 | 1.0 | 6.0 | 0.00 | 0.22 | 0.04 | 92 | 1019.6 |
| 20260902142432 | 72 | 142 | 2.0 | 7.0 | 0.00 | 0.22 | 0.04 | 92 | 1019.6 |
| 20260902141930 | 72 | 143 | 2.0 | 7.0 | 0.00 | 0.22 | 0.04 | 92 | 1019.5 |
| 20260902141429 | 73 | 93 | 1.0 | 3.0 | 0.00 | 0.22 | 0.04 | 92 | 1019.7 |
| 20260902140929 | 73 | 93 | 1.0 | 7.0 | 0.00 | 0.22 | 0.04 | 92 | 1019.6 |
| 20260902140428 | 73 | 94 | 2.0 | 7.0 | 0.00 | 0.22 | 0.04 | 93 | 1019.6 |
| 20260902135928 | 72 | 144 | 2.0 | 7.0 | 0.00 | 0.22 | 0.04 | 92 | 1019.6 |
| 20260902135648 | 72 | 94 | 2.0 | 7.0 | 0.00 | 0.22 | 0.04 | 92 | 1019.5 |
| 20260902134924 | 73 | 98 | 2.0 | 6.0 | 0.00 | 0.22 | 0.04 | 93 | 1019.4 |
| 20260902134425 | 72 | 100 | 2.0 | 8.0 | 0.00 | 0.22 | 0.04 | 93 | 1019.2 |
| 20260902133923 | 73 | 98 | 2.0 | 8.0 | 0.00 | 0.22 | 0.04 | 93 | 1019.0 |
| 20260902133655 | 72 | 84 | 2.0 | 9.0 | 0.00 | 0.22 | 0.04 | 93 | 1019.0 |
| 20260902132921 | 72 | 96 | 3.0 | 9.0 | 0.00 | 0.22 | 0.04 | 93 | 1018.8 |
| 20260902132422 | 72 | 96 | 3.0 | 9.0 | 0.00 | 0.22 | 0.04 | 93 | 1019.0 |
| 20260902132154 | 72 | 112 | 3.0 | 9.0 | 0.00 | 0.22 | 0.04 | 93 | 1018.9 |
| 20260902131420 | 73 | 94 | 2.0 | 9.0 | 0.00 | 0.22 | 0.04 | 94 | 1018.8 |
| 20260902130913 | 72 | 90 | 2.0 | 9.0 | 0.00 | 0.22 | 0.04 | 94 | 1018.7 |
| 20260902130405 | 73 | 109 | 2.0 | 7.0 | 0.00 | 0.22 | 0.04 | 94 | 1018.7 |
| 20260902125902 | 72 | 109 | 3.0 | 7.0 | 0.00 | 0.22 | 0.04 | 94 | 1018.8 |
| 20260902125358 | 73 | 86 | 2.0 | 8.0 | 0.00 | 0.22 | 0.04 | 94 | 1018.7 |
| 20260902124858 | 72 | 99 | 3.0 | 9.0 | 0.00 | 0.22 | 0.04 | 94 | 1018.6 |
| 20260902124359 | 72 | 94 | 3.0 | 9.0 | 0.00 | 0.22 | 0.04 | 94 | 1018.5 |
| 20260902123901 | 73 | 115 | 2.0 | 11.0 | 0.00 | 0.22 | 0.04 | 94 | 1018.6 |
| 20260902123356 | 73 | 106 | 2.0 | 11.0 | 0.00 | 0.22 | 0.04 | 94 | 1018.6 |
| 20260902122856 | 73 | 89 | 2.0 | 4.0 | 0.00 | 0.22 | 0.04 | 94 | 1018.6 |
| 20260902122354 | 73 | 89 | 1.0 | 4.0 | 0.00 | 0.22 | 0.04 | 94 | 1018.5 |
| 20260902122125 | 72 | 89 | 2.0 | 6.0 | 0.00 | 0.22 | 0.04 | 95 | 1018.5 |
| 20260902121355 | 72 | 89 | 2.0 | 6.0 | 0.00 | 0.22 | 0.04 | 94 | 1018.5 |
| 20260902120855 | 72 | 89 | 1.0 | 5.0 | 0.00 | 0.22 | 0.04 | 95 | 1018.4 |
| 20260902120618 | 72 | 89 | 1.0 | 4.0 | 0.00 | 0.22 | 0.04 | 94 | 1018.4 |
| 20260902120054 | 72 | 89 | 2.0 | 7.0 | 0.00 | 0.22 | 0.04 | 94 | 1018.2 |
| 20260902115945 | 72 | 89 | 2.0 | 7.0 | 0.00 | 0.22 | 0.04 | 94 | 1018.3 |
| 20260902114856 | 72 | 83 | 1.0 | 7.0 | 0.00 | 0.22 | 0.04 | 94 | 1018.3 |
| 20260902114353 | 72 | 101 | 1.0 | 6.0 | 0.00 | 0.22 | 0.04 | 94 | 1018.2 |
| 20260902113857 | 72 | 112 | 1.0 | 6.0 | 0.00 | 0.22 | 0.04 | 94 | 1018.2 |
| 20260902113400 | 72 | 103 | 1.0 | 3.0 | 0.00 | 0.22 | 0.04 | 94 | 1018.2 |
| 20260902112855 | 72 | 103 | 1.0 | 6.0 | 0.00 | 0.22 | 0.04 | 94 | 1018.2 |
| 20260902112350 | 72 | 103 | 1.0 | 6.0 | 0.00 | 0.22 | 0.04 | 95 | 1018.1 |
| 20260902111851 | 72 | 103 | 1.0 | 4.0 | 0.00 | 0.22 | 0.04 | 94 | 1018.2 |
| 20260902111349 | 72 | 103 | 1.0 | 3.0 | 0.00 | 0.22 | 0.04 | 95 | 1018.1 |
| 20260902110848 | 72 | 104 | 1.0 | 3.0 | 0.00 | 0.22 | 0.04 | 95 | 1018.1 |
| 20260902110349 | 72 | 105 | 1.0 | 3.0 | 0.00 | 0.22 | 0.04 | 95 | 1018.0 |
| 20260902105847 | 72 | 105 | 0.0 | 3.0 | 0.00 | 0.22 | 0.04 | 95 | 1018.1 |
| 20260902105346 | 72 | 105 | 0.0 | 2.0 | 0.00 | 0.22 | 0.04 | 95 | 1018.2 |
| 20260902104844 | 72 | 105 | 0.0 | 2.0 | 0.00 | 0.22 | 0.04 | 95 | 1018.2 |
| 20260902104345 | 71 | 105 | 0.0 | 2.0 | 0.00 | 0.22 | 0.04 | 95 | 1018.3 |
| 20260902103841 | 71 | 105 | 1.0 | 6.0 | 0.00 | 0.22 | 0.04 | 95 | 1018.1 |
| 20260902103342 | 71 | 105 | 1.0 | 6.0 | 0.00 | 0.22 | 0.04 | 95 | 1018.1 |
| 20260902102842 | 71 | 83 | 1.0 | 4.0 | 0.00 | 0.22 | 0.04 | 95 | 1018.1 |
| 20260902102340 | 71 | 83 | 0.0 | 4.0 | 0.00 | 0.22 | 0.04 | 94 | 1018.1 |
| 20260902101854 | 71 | 81 | 0.0 | 2.0 | 0.00 | 0.22 | 0.04 | 94 | 1018.1 |
| 20260902101343 | 71 | 80 | 0.0 | 0.0 | 0.00 | 0.22 | 0.04 | 94 | 1018.1 |
| 20260902100840 | 71 | 80 | 0.0 | 0.0 | 0.00 | 0.22 | 0.04 | 94 | 1018.1 |
| 20260902100335 | 71 | 80 | 0.0 | 0.0 | 0.00 | 0.22 | 0.04 | 95 | 1018.1 |
| 20260902095835 | 71 | 80 | 0.0 | 0.0 | 0.00 | 0.22 | 0.04 | 95 | 1018.0 |
| 20260902095332 | 71 | 80 | 0.0 | 0.0 | 0.00 | 0.22 | 0.04 | 94 | 1018.1 |
| 20260902095052 | 71 | 80 | 0.0 | 0.0 | 0.00 | 0.22 | 0.04 | 95 | 1018.1 |
| 20260902094327 | 71 | 80 | 0.0 | 0.0 | 0.00 | 0.22 | 0.04 | 94 | 1018.0 |
| 20260902093821 | 71 | 80 | 0.0 | 0.0 | 0.00 | 0.22 | 0.04 | 94 | 1018.0 |
| 20260902093533 | 71 | 80 | 0.0 | 0.0 | 0.00 | 0.22 | 0.04 | 94 | 1017.9 |
| 20260902092815 | 71 | 80 | 0.0 | 0.0 | 0.00 | 0.22 | 0.04 | 94 | 1017.8 |
| 20260902092539 | 71 | 80 | 0.0 | 0.0 | 0.00 | 0.22 | 0.04 | 94 | 1017.8 |
| 20260902091814 | 71 | 80 | 0.0 | 0.0 | 0.00 | 0.22 | 0.04 | 94 | 1017.9 |
| 20260902091319 | 70 | 80 | 0.0 | 0.0 | 0.00 | 0.22 | 0.04 | 94 | 1017.7 |
| 20260902090813 | 70 | 80 | 0.0 | 0.0 | 0.00 | 0.22 | 0.04 | 94 | 1017.7 |
| 20260902090313 | 70 | 80 | 0.0 | 0.0 | 0.00 | 0.22 | 0.04 | 94 | 1017.9 |
| 20260902085813 | 70 | 80 | 0.0 | 0.0 | 0.00 | 0.22 | 0.04 | 94 | 1017.7 |
| 20260902085310 | 70 | 80 | 0.0 | 0.0 | 0.00 | 0.22 | 0.04 | 94 | 1017.6 |
| 20260902084807 | 70 | 80 | 0.0 | 0.0 | 0.00 | 0.22 | 0.04 | 94 | 1017.6 |
| 20260902084525 | 70 | 80 | 0.0 | 0.0 | 0.00 | 0.22 | 0.04 | 94 | 1017.6 |
| 20260902083808 | 70 | 80 | 0.0 | 0.0 | 0.00 | 0.22 | 0.04 | 94 | 1017.6 |
| 20260902083302 | 70 | 80 | 0.0 | 0.0 | 0.00 | 0.22 | 0.04 | 94 | 1017.6 |
| 20260902082759 | 69 | 80 | 0.0 | 0.0 | 0.01 | 0.22 | 0.04 | 94 | 1017.6 |
| 20260902082519 | 69 | 80 | 0.0 | 0.0 | 0.01 | 0.22 | 0.04 | 94 | 1017.6 |
| 20260902081757 | 69 | 80 | 0.0 | 0.0 | 0.01 | 0.22 | 0.04 | 94 | 1017.5 |
| 20260902081258 | 69 | 80 | 0.0 | 0.0 | 0.01 | 0.22 | 0.04 | 94 | 1017.5 |
| 20260902080758 | 69 | 80 | 0.0 | 0.0 | 0.01 | 0.22 | 0.04 | 94 | 1017.5 |
| 20260902080533 | 69 | 80 | 0.0 | 0.0 | 0.01 | 0.22 | 0.04 | 94 | 1017.5 |
| 20260902075759 | 69 | 80 | 0.0 | 0.0 | 0.01 | 0.22 | 0.04 | 94 | 1017.4 |
| 20260902075259 | 69 | 80 | 0.0 | 0.0 | 0.01 | 0.22 | 0.04 | 94 | 1017.5 |
| 20260902074757 | 69 | 80 | 0.0 | 0.0 | 0.01 | 0.22 | 0.04 | 94 | 1017.4 |
| 20260902074256 | 69 | 80 | 0.0 | 0.0 | 0.01 | 0.22 | 0.04 | 94 | 1017.4 |
| 20260902073754 | 69 | 80 | 0.0 | 0.0 | 0.01 | 0.22 | 0.04 | 94 | 1017.3 |
| 20260902073253 | 69 | 80 | 0.0 | 0.0 | 0.01 | 0.22 | 0.04 | 94 | 1017.1 |
| 20260902072751 | 69 | 80 | 0.0 | 0.0 | 0.00 | 0.21 | 0.03 | 94 | 1017.2 |
| 20260902072250 | 69 | 80 | 0.0 | 0.0 | 0.00 | 0.21 | 0.03 | 94 | 1017.1 |
| 20260902071748 | 69 | 80 | 0.0 | 0.0 | 0.00 | 0.21 | 0.03 | 94 | 1017.1 |
| 20260902071248 | 70 | 80 | 0.0 | 0.0 | 0.00 | 0.21 | 0.03 | 94 | 1017.0 |
| 20260902070747 | 70 | 80 | 0.0 | 0.0 | 0.00 | 0.21 | 0.03 | 94 | 1016.9 |
| 20260902070251 | 70 | 80 | 0.0 | 0.0 | 0.00 | 0.21 | 0.03 | 94 | 1016.9 |
| 20260902065749 | 70 | 80 | 0.0 | 0.0 | 0.00 | 0.21 | 0.03 | 94 | 1016.9 |
| 20260902065245 | 70 | 80 | 0.0 | 0.0 | 0.00 | 0.21 | 0.03 | 94 | 1017.1 |
| 20260902065019 | 70 | 80 | 0.0 | 0.0 | 0.00 | 0.21 | 0.03 | 94 | 1017.0 |
| 20260902064246 | 70 | 80 | 0.0 | 0.0 | 0.00 | 0.21 | 0.03 | 94 | 1016.9 |
| 20260902063746 | 70 | 80 | 0.0 | 0.0 | 0.00 | 0.21 | 0.03 | 94 | 1016.8 |
| 20260902063244 | 70 | 80 | 0.0 | 0.0 | 0.00 | 0.21 | 0.03 | 94 | 1016.8 |
| 20260902062741 | 70 | 80 | 0.0 | 0.0 | 0.00 | 0.21 | 0.03 | 94 | 1016.8 |
| 20260902062511 | 70 | 80 | 0.0 | 0.0 | 0.00 | 0.21 | 0.03 | 94 | 1016.7 |
| 20260902062013 | 70 | 80 | 0.0 | 0.0 | 0.00 | 0.21 | 0.03 | 94 | 1016.6 |
| 20260902061243 | 71 | 80 | 0.0 | 0.0 | 0.00 | 0.21 | 0.03 | 94 | 1016.6 |
| 20260902060738 | 71 | 80 | 0.0 | 0.0 | 0.00 | 0.21 | 0.03 | 94 | 1016.5 |
| 20260902060239 | 71 | 80 | 0.0 | 0.0 | 0.00 | 0.21 | 0.03 | 94 | 1016.4 |
| 20260902055737 | 71 | 80 | 0.0 | 0.0 | 0.00 | 0.21 | 0.03 | 94 | 1016.3 |
| 20260902055235 | 71 | 80 | 0.0 | 0.0 | 0.00 | 0.21 | 0.03 | 94 | 1016.4 |
| 20260902054738 | 71 | 80 | 0.0 | 0.0 | 0.00 | 0.21 | 0.03 | 94 | 1016.5 |
| 20260902054720 | 71 | 80 | 0.0 | 0.0 | 0.00 | 0.21 | 0.03 | 94 | 1016.4 |
| 20260902053951 | 71 | 80 | 0.0 | 0.0 | 0.00 | 0.21 | 0.03 | 94 | 1016.6 |
| 20260902053458 | 71 | 80 | 0.0 | 0.0 | 0.01 | 0.21 | 0.03 | 94 | 1016.6 |
| 20260902052730 | 71 | 80 | 0.0 | 0.0 | 0.01 | 0.21 | 0.03 | 93 | 1016.5 |
| 20260902052455 | 71 | 80 | 0.0 | 0.0 | 0.02 | 0.21 | 0.03 | 93 | 1016.5 |
| 20260902051729 | 71 | 80 | 0.0 | 0.0 | 0.02 | 0.21 | 0.03 | 93 | 1016.5 |
| 20260902051231 | 71 | 80 | 0.0 | 0.0 | 0.02 | 0.21 | 0.03 | 94 | 1016.6 |
| 20260902050729 | 71 | 80 | 0.0 | 0.0 | 0.03 | 0.21 | 0.03 | 94 | 1016.7 |
| 20260902050452 | 71 | 80 | 0.0 | 0.0 | 0.03 | 0.21 | 0.03 | 93 | 1016.9 |
| 20260902045731 | 72 | 80 | 0.0 | 0.0 | 0.03 | 0.21 | 0.03 | 93 | 1017.1 |
| 20260902045454 | 72 | 80 | 0.0 | 0.0 | 0.03 | 0.21 | 0.03 | 93 | 1016.9 |
| 20260902044730 | 72 | 80 | 0.0 | 0.0 | 0.04 | 0.21 | 0.03 | 93 | 1016.8 |
| 20260902044231 | 72 | 80 | 0.0 | 0.0 | 0.04 | 0.21 | 0.03 | 93 | 1017.0 |
| 20260902043729 | 72 | 80 | 0.0 | 0.0 | 0.04 | 0.21 | 0.03 | 93 | 1017.2 |
| 20260902043458 | 72 | 80 | 0.0 | 0.0 | 0.04 | 0.20 | 0.03 | 93 | 1017.3 |
| 20260902042730 | 72 | 80 | 0.0 | 0.0 | 0.04 | 0.20 | 0.02 | 93 | 1017.3 |
| 20260902042231 | 72 | 80 | 0.0 | 0.0 | 0.03 | 0.19 | 0.01 | 93 | 1017.2 |
| 20260902041730 | 72 | 80 | 0.0 | 0.0 | 0.03 | 0.19 | 0.01 | 93 | 1017.3 |
| 20260902041231 | 72 | 80 | 0.0 | 0.0 | 0.03 | 0.20 | 0.01 | 93 | 1017.5 |
| 20260902040730 | 72 | 80 | 0.0 | 0.0 | 0.02 | 0.19 | 0.00 | 93 | 1017.5 |
| 20260902040229 | 72 | 80 | 0.0 | 0.0 | 0.02 | 0.19 | 0.00 | 93 | 1017.5 |
| 20260902035728 | 72 | 78 | 0.0 | 0.0 | 0.02 | 0.19 | 0.19 | 93 | 1017.4 |
| 20260902035232 | 72 | 78 | 0.0 | 2.0 | 0.02 | 0.19 | 0.19 | 93 | 1017.6 |
| 20260902034734 | 72 | 78 | 0.0 | 2.0 | 0.01 | 0.18 | 0.18 | 93 | 1017.5 |
| 20260902034234 | 72 | 78 | 0.0 | 2.0 | 0.01 | 0.18 | 0.18 | 93 | 1017.4 |
| 20260902033748 | 72 | 78 | 0.0 | 3.0 | 0.01 | 0.18 | 0.18 | 93 | 1017.2 |
| 20260902033235 | 72 | 78 | 1.0 | 4.0 | 0.00 | 0.17 | 0.17 | 93 | 1017.3 |
| 20260902032734 | 72 | 78 | 1.0 | 4.0 | 0.00 | 0.17 | 0.17 | 93 | 1017.3 |
| 20260902032242 | 72 | 105 | 1.0 | 4.0 | 0.00 | 0.17 | 0.17 | 93 | 1017.4 |
| 20260902031946 | 72 | 141 | 0.0 | 2.0 | 0.00 | 0.17 | 0.17 | 93 | 1016.8 |
| 20260902031226 | 72 | 141 | 1.0 | 3.0 | 0.00 | 0.17 | 0.17 | 93 | 1016.3 |
| 20260902030725 | 72 | 141 | 1.0 | 5.0 | 0.00 | 0.17 | 0.17 | 93 | 1016.0 |
| 20260902030222 | 72 | 141 | 1.0 | 5.0 | 0.00 | 0.17 | 0.17 | 93 | 1016.2 |
| 20260902025724 | 72 | 5 | 0.0 | 1.0 | 0.00 | 0.17 | 0.17 | 93 | 1015.8 |
| 20260902025224 | 72 | 355 | 0.0 | 0.0 | 0.00 | 0.17 | 0.17 | 93 | 1015.8 |
| 20260902024723 | 72 | 355 | 0.0 | 0.0 | 0.00 | 0.17 | 0.17 | 93 | 1015.1 |
| 20260902024448 | 72 | 355 | 0.0 | 0.0 | 0.00 | 0.17 | 0.17 | 93 | 1015.0 |
| 20260902023949 | 72 | 355 | 0.0 | 0.0 | 0.00 | 0.17 | 0.17 | 93 | 1015.1 |
| 20260902023222 | 72 | 355 | 0.0 | 0.0 | 0.00 | 0.17 | 0.17 | 93 | 1015.0 |
| 20260902022725 | 72 | 355 | 0.0 | 0.0 | 0.00 | 0.17 | 0.17 | 93 | 1015.0 |
| 20260902022445 | 72 | 355 | 0.0 | 0.0 | 0.00 | 0.17 | 0.17 | 93 | 1015.0 |
| 20260902021724 | 72 | 355 | 0.0 | 0.0 | 0.00 | 0.17 | 0.17 | 92 | 1014.9 |
| 20260902021441 | 72 | 355 | 0.0 | 0.0 | 0.00 | 0.17 | 0.17 | 92 | 1015.0 |
| 20260902020724 | 72 | 355 | 0.0 | 0.0 | 0.00 | 0.17 | 0.17 | 92 | 1015.0 |
| 20260902020222 | 72 | 355 | 1.0 | 7.0 | 0.00 | 0.17 | 0.17 | 92 | 1015.2 |
| 20260902015720 | 72 | 355 | 1.0 | 7.0 | 0.00 | 0.17 | 0.17 | 92 | 1015.4 |
| 20260902015218 | 72 | 355 | 0.0 | 4.0 | 0.00 | 0.17 | 0.17 | 92 | 1015.5 |
| 20260902014714 | 72 | 12 | 0.0 | 1.0 | 0.00 | 0.17 | 0.17 | 92 | 1015.4 |
| 20260902014214 | 72 | 69 | 0.0 | 0.0 | 0.00 | 0.17 | 0.17 | 92 | 1015.5 |
| 20260902013714 | 72 | 69 | 0.0 | 0.0 | 0.00 | 0.17 | 0.17 | 92 | 1015.3 |
| 20260902013654 | 72 | 69 | 0.0 | 0.0 | 0.00 | 0.17 | 0.17 | 92 | 1015.0 |
| 20260902012713 | 72 | 69 | 0.0 | 0.0 | 0.01 | 0.17 | 0.17 | 92 | 1014.8 |
| 20260902012212 | 72 | 69 | 0.0 | 0.0 | 0.07 | 0.17 | 0.17 | 92 | 1015.1 |
| 20260902011713 | 73 | 69 | 0.0 | 0.0 | 0.12 | 0.17 | 0.17 | 92 | 1014.8 |
| 20260902011213 | 73 | 68 | 0.0 | 0.0 | 0.13 | 0.17 | 0.17 | 92 | 1014.5 |
| 20260902010712 | 73 | 138 | 0.0 | 3.0 | 0.14 | 0.17 | 0.17 | 92 | 1014.5 |
| 20260902010212 | 74 | 138 | 0.0 | 3.0 | 0.14 | 0.17 | 0.17 | 92 | 1014.1 |
| 20260902005710 | 74 | 272 | 0.0 | 0.0 | 0.16 | 0.17 | 0.17 | 91 | 1014.4 |